Location: Cicognara
(44.9500°N, 10.4667°E)
Time: 15:38:11
(UTC+00:00)

GP-B - Pass Details

Date: 20 June 2021
Orbit: 631 x 635 km, 89.8° (Epoch: 03 August)

Event Time Altitude Azimuth Distance (km) Brightness Sun altitude
Rises 23:18:37 0° 0° (N) 2,944 8.1 -21.6°
Reaches altitude 10° 23:20:51 10° 360° (N) 2,031 6.9 -21.6°
Maximum altitude 23:25:19 80° 273° (W) 649 3.0 -21.6°
Enters shadow 23:26:04 61° 201° (SSW) 724 3.0 -21.6°
